TimeMST,TemperatureF,Dew PointF,Humidity,Sea Level PressureIn,VisibilityMPH,Wind Direction,Wind SpeedMPH,Gust SpeedMPH,PrecipitationIn,Events,Conditions,WindDirDegrees,DateUTC
12:03 AM,10.4,3.2,73,30.11,6.0,NNW,34.5,43.7,N/A,Snow,Light Snow,330,2012-12-09 07:03:00
12:05 AM,10.4,3.2,73,30.11,8.0,NNW,35.7,44.9,N/A,,Overcast,330,2012-12-09 07:05:00
12:08 AM,10.4,3.2,73,30.11,10.0,NNW,36.8,47.2,N/A,,Overcast,330,2012-12-09 07:08:00
12:13 AM,10.4,1.4,67,30.10,10.0,NNW,35.7,47.2,N/A,,Freezing Rain,330,2012-12-09 07:13:00
12:15 AM,10.4,1.4,67,30.12,10.0,NNW,32.2,47.2,N/A,,Overcast,330,2012-12-09 07:15:00
12:16 AM,10.4,1.4,67,30.11,10.0,NNW,35.7,47.2,N/A,,Freezing Rain,330,2012-12-09 07:16:00
12:17 AM,10.4,3.2,73,30.11,9.0,NNW,34.5,47.2,N/A,,Overcast,330,2012-12-09 07:17:00
12:27 AM,10.4,3.2,73,30.12,6.0,NNW,33.4,46.0,N/A,Snow,Blowing Snow,330,2012-12-09 07:27:00
12:33 AM,10.4,3.2,73,30.12,5.0,NNW,31.1,41.4,N/A,Snow,Light Snow,330,2012-12-09 07:33:00
12:44 AM,10.4,3.2,73,30.13,3.0,NNW,32.2,47.2,N/A,Snow,Light Snow,330,2012-12-09 07:44:00
12:48 AM,10.4,3.2,73,30.12,4.0,NNW,34.5,47.2,N/A,Snow,Light Snow,330,2012-12-09 07:48:00
12:55 AM,9.1,2.5,74,30.14,4.0,NNW,34.5,47.2,0.00,Snow,Light Snow,330,2012-12-09 07:55:00
1:35 AM,8.6,3.2,79,30.15,4.0,NNW,29.9,40.3,N/A,Snow,Light Snow,330,2012-12-09 08:35:00
1:42 AM,8.6,3.2,79,30.15,4.0,NNW,29.9,43.7,N/A,Snow,Light Snow,330,2012-12-09 08:42:00
1:45 AM,8.6,3.2,79,30.15,4.0,NNW,28.8,43.7,N/A,Snow,Light Snow,330,2012-12-09 08:45:00
1:46 AM,8.6,3.2,79,30.15,4.0,NNW,29.9,43.7,N/A,Snow,Light Snow,330,2012-12-09 08:46:00
1:47 AM,8.6,3.2,79,30.15,4.0,NNW,32.2,43.7,N/A,Snow,Light Snow,330,2012-12-09 08:47:00
1:48 AM,8.6,3.2,79,30.15,4.0,NNW,33.4,41.4,N/A,Snow,Light Snow,330,2012-12-09 08:48:00
1:49 AM,8.6,3.2,79,30.15,4.0,NNW,34.5,43.7,N/A,Snow,Light Snow,330,2012-12-09 08:49:00
1:54 AM,8.6,3.2,79,30.15,3.0,NNW,34.5,46.0,N/A,Snow,Light Snow,330,2012-12-09 08:54:00
1:55 AM,8.4,2.3,76,30.15,3.0,NNW,35.7,46.0,0.00,Snow,Light Snow,330,2012-12-09 08:55:00
1:58 AM,8.6,1.4,73,30.16,3.0,NNW,38.0,47.2,N/A,Snow,Light Snow,330,2012-12-09 08:58:00
2:02 AM,8.6,3.2,79,30.16,3.0,NNW,36.8,47.2,N/A,Snow,Light Snow,330,2012-12-09 09:02:00
2:05 AM,8.6,1.4,73,30.17,2.5,NNW,40.3,51.8,N/A,Snow,Light Snow,330,2012-12-09 09:05:00
2:07 AM,8.6,1.4,73,30.16,3.0,NNW,41.4,51.8,N/A,Snow,Light Snow,330,2012-12-09 09:07:00
2:29 AM,8.6,1.4,73,30.18,4.0,NNW,35.7,46.0,N/A,Snow,Light Snow,330,2012-12-09 09:29:00
2:36 AM,8.6,1.4,73,30.19,4.0,NNW,35.7,48.3,N/A,Snow,Light Snow,330,2012-12-09 09:36:00
2:55 AM,7.7,1.4,75,30.20,5.0,NNW,31.1,42.6,0.00,Snow,Blowing Snow,330,2012-12-09 09:55:00
3:55 AM,7.5,1.4,76,30.24,4.0,NNW,28.8,36.8,0.00,Snow,Blowing Snow,330,2012-12-09 10:55:00
4:11 AM,6.8,1.4,79,30.25,4.0,NNW,32.2,41.4,N/A,Snow,Blowing Snow,330,2012-12-09 11:11:00
4:19 AM,6.8,1.4,79,30.26,4.0,NNW,31.1,41.4,N/A,Snow,Blowing Snow,340,2012-12-09 11:19:00
4:22 AM,6.8,1.4,79,30.26,4.0,NNW,31.1,41.4,N/A,Snow,Blowing Snow,340,2012-12-09 11:22:00
4:23 AM,6.8,1.4,79,30.26,4.0,NNW,32.2,41.4,N/A,Snow,Blowing Snow,330,2012-12-09 11:23:00
4:40 AM,6.8,1.4,79,30.27,3.0,NNW,32.2,38.0,N/A,Snow,Light Snow,330,2012-12-09 11:40:00
4:55 AM,6.8,0.5,75,30.28,4.0,NNW,28.8,39.1,0.00,Snow,Blowing Snow,330,2012-12-09 11:55:00
5:33 AM,6.8,-0.4,72,30.33,9.0,NNW,26.5,38.0,N/A,,Overcast,330,2012-12-09 12:33:00
5:36 AM,6.8,-0.4,72,30.32,10.0,NNW,28.8,38.0,N/A,,Freezing Rain,330,2012-12-09 12:36:00
5:45 AM,6.8,-0.4,72,30.33,10.0,NNW,29.9,38.0,N/A,,Overcast,340,2012-12-09 12:45:00
5:55 AM,7.2,-0.8,70,30.34,10.0,NNW,31.1,36.8,0.00,,Overcast,340,2012-12-09 12:55:00
6:55 AM,6.3,-3.1,65,30.41,10.0,NNW,24.2,-,N/A,,Clear,330,2012-12-09 13:55:00
7:55 AM,6.1,-3.3,65,30.44,10.0,NNW,23.0,32.2,N/A,,Clear,340,2012-12-09 14:55:00
8:55 AM,7.2,-3.5,62,30.47,10.0,NNW,24.2,31.1,N/A,,Clear,340,2012-12-09 15:55:00
9:55 AM,10.2,-1.5,59,30.49,10.0,NNW,24.2,31.1,N/A,,Clear,330,2012-12-09 16:55:00
10:55 AM,11.8,-0.0,59,30.49,10.0,NNW,20.7,26.5,N/A,,Clear,330,2012-12-09 17:55:00
11:55 AM,12.7,-0.9,54,30.48,10.0,North,16.1,24.2,N/A,,Clear,350,2012-12-09 18:55:00
12:55 PM,13.1,-2.2,51,30.46,10.0,North,17.3,-,N/A,,Clear,350,2012-12-09 19:55:00
1:55 PM,13.6,-3.6,46,30.44,10.0,North,15.0,-,N/A,,Clear,360,2012-12-09 20:55:00
2:55 PM,13.1,-3.3,48,30.43,10.0,NNE,6.9,-,N/A,,Clear,20,2012-12-09 21:55:00
3:55 PM,10.8,-2.6,55,30.43,10.0,ESE,4.6,-,N/A,,Clear,110,2012-12-09 22:55:00
4:55 PM,6.4,-2.6,67,30.42,10.0,SE,5.8,-,N/A,,Clear,140,2012-12-09 23:55:00
5:55 PM,6.1,-2.0,69,30.39,10.0,SSE,5.8,-,N/A,,Clear,160,2012-12-10 00:55:00
6:55 PM,7.5,-1.7,66,30.36,10.0,South,9.2,-,N/A,,Clear,190,2012-12-10 01:55:00
7:55 PM,7.0,-1.3,69,30.32,10.0,South,5.8,-,N/A,,Clear,170,2012-12-10 02:55:00
8:55 PM,6.4,-1.3,71,30.27,10.0,South,6.9,-,N/A,,Clear,190,2012-12-10 03:55:00
9:55 PM,4.8,-2.0,73,30.22,10.0,SSW,4.6,-,N/A,,Clear,200,2012-12-10 04:55:00
10:55 PM,4.1,-2.2,75,30.17,10.0,SSW,6.9,-,N/A,,Clear,210,2012-12-10 05:55:00
11:55 PM,2.7,-3.5,76,30.13,10.0,West,3.5,-,N/A,,Clear,270,2012-12-10 06:55:00